Flag Weather past 2 weeks in Stonewall, Manitoba, Canada

Now
34 °F

Overcast.


Feels Like: 22 °F
Forecast: 28 / 36 °F
Wind: 22 mph from North

Location: Winnipeg Int. Airportman.

Current Time: Oct 30, 2014 at 11:07:08 AM

Latest Report: Oct 30, 2014 at 10:00 AM


Visibility: 15 mi

Pressure: 30.33 "Hg

Humidity: 75%

Dew point: 27 °F

Location of StonewallLocation

Historic Weather in Stonewall — Graph

°F

Stonewall temperature yesterday

Maximum temperature yesterday: 37 °F (at 2:00 PM)
Minimum temperature yesterday: 32 °F (at 3:00 AM)
Average temperature yesterday: 35 °F

Past Weeks' High & Low Weather Summary

 TemperatureHumidityPressure
High70 °F (Oct 15, 3:00 PM)100% (Oct 20, 2:00 AM)30.33 "Hg (Oct 20, 2:00 AM)
Low32 °F (Oct 26, 1:00 AM)31% (Oct 25, 4:00 PM)29.46 "Hg (Oct 27, 12:00 AM)
Average46 °F71%29.88 "Hg
* Reported Oct 15 10:00 AM — Oct 30 10:00 AM, Stonewall, Weather by CustomWeather, © 2014

Note: Actual official high and low records may vary slightly from our data, if they occured in-between our weather recording intervals... More about our weather records

Advertising

Stonewall weather history for previous 24 hours

 ConditionsComfort  
Time TempWeatherWind HumidityBarometerVisibility
10:00 AM
Oct 30
34 °FOvercast.22 mph75%30.33 "Hg15 mi
9:00 AM34 °FOvercast.18 mph81%30.30 "Hg15 mi
8:00 AM34 °FOvercast.21 mph81%30.25 "Hg15 mi
7:00 AM36 °FOvercast.18 mph81%30.23 "Hg15 mi
6:00 AM36 °FOvercast.9 mph87%30.20 "Hg15 mi
5:00 AM36 °FMostly cloudy.9 mph87%30.17 "Hg15 mi
4:00 AM34 °FOvercast.5 mph93%30.15 "Hg15 mi
3:00 AM34 °FOvercast.5 mph93%30.14 "Hg15 mi
2:00 AM34 °FOvercast.5 mph87%30.12 "Hg15 mi
1:00 AM34 °FPassing clouds.5 mph87%30.10 "Hg15 mi
12:00 AM36 °FMostly cloudy.8 mph81%30.08 "Hg15 mi
11:00 PM
Oct 29
36 °FOvercast.6 mph87%30.09 "Hg15 mi
10:00 PM36 °FMostly cloudy.5 mph81%30.08 "Hg15 mi
9:00 PM36 °FSprinkles. Mostly cloudy.6 mph81%30.07 "Hg15 mi
8:00 PM37 °FSprinkles. Overcast.6 mph75%30.07 "Hg15 mi
7:53 PM37 °FSprinkles. Overcast.7 mph75%30.07 "Hg15 mi
7:00 PM37 °FOvercast.8 mph70%30.06 "Hg15 mi
6:00 PM37 °FOvercast.7 mph75%30.06 "Hg15 mi
5:00 PM37 °FMostly cloudy.9 mph70%30.06 "Hg15 mi
4:00 PM37 °FMostly cloudy.8 mph70%30.06 "Hg15 mi
3:00 PM37 °FMostly cloudy.5 mph70%30.09 "Hg15 mi
2:00 PM37 °FMostly cloudy.5 mph75%30.10 "Hg15 mi
1:00 PM36 °FMostly cloudy.5 mph81%30.11 "Hg15 mi
12:00 PM34 °FLow clouds.7 mph93%30.12 "Hg15 mi
11:00 AM34 °FMostly cloudy.3 mph87%30.12 "Hg15 mi
Weather by CustomWeather, © 2014

See weather overviewHow to use our weather pages